Regional Weather Roundup
Issued by NWS

Home | Current Version | Previous Version | Graphics & Text | Print | Product List | Glossary On
Versions: 1 2 3 4 5 6 7 8 9 10 11 12 13 14 15 16 17 18 19 20 21 22 23 24 25 26 27 28 29 30 31 32 33 34 35 36 37 38 39 40 41 42 43 44 45 46 47 48 49 50
000
ASUS45 KABQ 180910
RWRNM
WEATHER ROUNDUP FOR NEW MEXICO
NATIONAL WEATHER SERVICE ALBUQUERQUE NM
200 AM MST THU DEC 18 2014

NOTE: "FAIR" MEANS FEW OR NO CLOUDS BELOW 12,000 FEET AGL WITH NO
       SIGNIFICANT WEATHER OR OBSTRUCTIONS TO VISION.

      THIS PRODUCT IS RELEASED AS TWO VERSIONS.  ONE VERSION NEAR
      THE TOP OF THE HOUR CONTAINING PRELIMINARY DATA FROM ALBUQUERQUE
      AND OTHER STATIONS.  A FINAL VERSION WITH ADDITIONAL DATA IS
      ISSUED ABOUT 10 MINUTES AFTER THE HOUR.

NMZ501-503-504-510>518-181000-
NORTHWEST PLATEAU/NORTHCENTRAL MOUNTAINS

CITY           SKY/WX    TMP DP  RH WIND       PRES   REMARKS
FARMINGTON     CLOUDY    34  33  96 SW3       30.09S
LOS ALAMOS     MOCLDY    30  30 100 CALM      30.08R
SANTA FE       PTCLDY    28  25  88 SW5       30.08R WCI  23
TAOS           CLOUDY    28  27  93 NW6       30.06R WCI  22
ANGEL FIRE     LGT SNOW  28  24  86 SW7       30.04R WCI  21

$$
NMZ402-403-502-505>509-181000-
WESTCENTRAL MOUNTAINS/SOUTHWEST MOUNTAINS

CITY           SKY/WX    TMP DP  RH WIND       PRES   REMARKS
GALLUP         CLOUDY    31  29  92 CALM      30.11S
GRANTS         PTCLDY    28  26  92 NW10      30.13R WCI  19
SILVER CITY    CLOUDY    36  34  93 NW8       30.16R WCI  29

$$
NMZ407-409-411-412-181000-
SOUTHERN DESERTS

CITY           SKY/WX    TMP DP  RH WIND       PRES   REMARKS
LORDSBURG      PTSUNNY   39  37  93 CALM      30.14F
DEMING         CLOUDY    41  37  86 W6        30.15R
LAS CRUCES     CLOUDY    40  35  85 W7        30.15R WCI  35
HOLLOMAN AFB   DRIZZLE   46  36  68 E2        30.11R
ALAMOGORDO     CLOUDY    45  36  70 SE5       30.12S
T OR C         CLOUDY    40  28  62 NW6       30.11R

$$
NMZ519>523-181000-
CENTRAL VALLEYS/CENTRAL HIGHLANDS

CITY           SKY/WX    TMP DP  RH WIND       PRES   REMARKS
ALBUQUERQUE    PTCLDY    32  30  92 E6        30.12R WCI  26
DOUBLE EAGLE   CLEAR     28  26  89 W5        30.12R WCI  23
MORIARTY ARPT  PTSUNNY   32  26  78 W6        30.10R WCI  26
CLINES CORNERS CLEAR     27  24  89 W21       30.03R WCI  13
BELEN          FAIR      29  27  92 SW6       30.13R WCI  23
SOCORRO        FAIR      32  29  87 CALM      30.13R

$$
NMZ524>526-539-540-181000-
SOUTHCENTRAL MOUNTAINS

CITY           SKY/WX    TMP DP  RH WIND       PRES   REMARKS
RUIDOSO        MOCLDY    36  23  60 W20       30.09F WCI  25

$$
NMZ527>531-181000-
NORTHEAST HIGHLANDS/NORTHEAST PLAINS

CITY           SKY/WX    TMP DP  RH WIND       PRES   REMARKS
LAS VEGAS      PTCLDY    26  21  81 S9        30.00R WCI  17
RATON          CLOUDY    26  21  81 NE7       29.97R WCI  18
CLAYTON        CLEAR     23  20  88 CALM      29.97S

$$
NMZ532>537-181000-
EASTCENTRAL PLAINS

CITY           SKY/WX    TMP DP  RH WIND       PRES   REMARKS
TUCUMCARI      CLEAR     29  25  85 N6        29.99R WCI  23
CANNON AFB     CLEAR     37  30  75 NW13      30.01S WCI  29
CLOVIS AIRPORT CLEAR     36  28  75 W12       30.00S WCI  27

$$
NMZ028-029-538-181000-
SOUTHEAST PLAINS

CITY           SKY/WX    TMP DP  RH WIND       PRES   REMARKS
ROSWELL        CLEAR     32  27  81 SW6       30.07S WCI  26
ARTESIA        CLEAR     41  30  65 N3        30.07S
CARLSBAD       CLEAR     51  33  50 W12       30.07R
HOBBS          CLEAR     39  30  70 W7        30.08R WCI  34


$$


USA.gov is the U.S. government's official web portal to all federal, state and local government web resources and services.